Regional Weather Roundup
Issued by NWS

Home | Current Version | Previous Version | Graphics & Text | Print | Product List | Glossary On
Versions: 1 2 3 4 5 6 7 8 9 10 11 12 13 14 15 16 17 18 19 20 21 22 23 24 25 26 27 28 29 30 31 32 33 34 35 36 37 38 39 40 41 42 43 44 45 46 47 48 49 50
000
ASUS43 KIND 192310
RWRIN

WEATHER ROUNDUP FOR INDIANA
NATIONAL WEATHER SERVICE INDIANAPOLIS IN
700 PM EDT SAT AUG 19 2017

NOTE: "FAIR" INDICATES FEW OR NO CLOUDS BELOW 12,000 FEET WITH NO
SIGNIFICANT WEATHER AND/OR OBSTRUCTIONS TO VISIBILITY.

* - STATION DOES NOT REPORT WEATHER SUCH AS PRECIPITATION OR FOG.

+ - STATION NOT QUALITY CONTROLLED BY THE NATIONAL WEATHER SERVICE.
    USE DATA WITH CAUTION...ESPECIALLY DEWPOINT AND RELATIVE
    HUMIDITY OBSERVATIONS.

INZ001>003-010>013-019-020-200000-
NORTHWEST INDIANA

CITY           SKY/WX    TMP DP  RH WIND       PRES   REMARKS
GARY /AIRPORT/ SUNNY     81  50  34 VRB6      29.96S
KNOX *+        SUNNY     79  59  50 N5        29.96R
LA PORTE +     SUNNY     77  57  49 N8        29.98R
MICHIGAN CITY+ SUNNY     73  55  53 CALM      29.98S
MONTICELLO +   SUNNY     81  59  47 W3        29.95S
RENSSELAER +   SUNNY     79  52  38 CALM      29.96S
VALPARAISO     SUNNY     80  61  52 N5        29.97R

$$

LMZ046-743>745-200000-
SOUTHERN LAKE MICHIGAN

STATION/POSITION TIME  TEMP    WIND        PRES    WAVE
                       AIR SEA DIR/SP/G            HT
                 (UTC) (F)     (DEG/KT/KT) (MB)    (FT)
BURNS HARBOR     2240   76      70/  8/  9 1014.9F
MICHIGAN CITY    2240   72      30/  5/  6   N/A
5NW MICH CITY    2300   73 76   80/  6/  6   N/A     1

$$

INZ004-005-014>016-021>024-200000-
NORTH CENTRAL INDIANA

CITY           SKY/WX    TMP DP  RH WIND       PRES   REMARKS
GOSHEN         SUNNY     80  57  45 W7        29.96R
LOGANSPORT +   SUNNY     79  59  50 CALM      29.96S
PERU/GRISSOM   SUNNY     80  58  47 N5        29.95S
ROCHESTER +    SUNNY    N/A N/A N/A NW3       29.96S
SOUTH BEND     SUNNY     78  57  48 NW7       29.97S
WARSAW +       MOSUNNY   79  61  53 W3        29.96S

$$

INZ006>009-017-018-025>027-200000-
NORTHEAST INDIANA

CITY           SKY/WX    TMP DP  RH WIND       PRES   REMARKS
AUBURN +       SUNNY     79  59  50 W3        29.97S
FORT WAYNE     SUNNY     80  60  50 W6        29.96S
HUNTINGTON +   SUNNY     78  60  52 CALM      29.96S

$$

INZ028-029-035-036-043>045-051>053-200000-
WEST CENTRAL INDIANA

CITY           SKY/WX    TMP DP  RH WIND       PRES   REMARKS
GREENCASTLE +  PTSUNNY   82  64  54 N6        29.94S
LAFAYETTE      MOSUNNY   82  62  50 NW6       29.95R
TERRE HAUTE    CLOUDY    83  68  60 SW6       29.93R

$$

INZ030>032-037>040-046>048-054>057-064-065-200000-
CENTRAL INDIANA

CITY           SKY/WX    TMP DP  RH WIND       PRES   REMARKS
CP ATTERBURY + PTSUNNY   84  64  51 CALM      29.93F
COLUMBUS       PTSUNNY   84  61  45 E5        29.93S
FRANKFORT +    PTSUNNY   82  66  57 NE5       29.98S
GREENWOOD *+   MOSUNNY   85  59  40 NW3       29.94S
INDIANAPOLIS   MOSUNNY   85  62  46 N10       29.93S
-EAGLE CREEK   SUNNY     85  60  42 N7        29.93S
KOKOMO +       SUNNY     81  61  50 NW5       29.97S
MARION +       SUNNY     77  63  61 NW3       29.97S
MT COMFORT *+  MOSUNNY   81  66  61 NE8       29.96S
SHELBYVILLE    PTSUNNY   84  70  62 NE7       29.93S
ZIONSVILLE +   SUNNY     79  66  65 N5        29.96S

$$

INZ033-034-041-042-049-050-058-059-200000-
EAST CENTRAL INDIANA

CITY           SKY/WX    TMP DP  RH WIND       PRES   REMARKS
MUNCIE         SUNNY     81  61  50 NW5       29.96S
RICHMOND +     SUNNY     81  64  57 W6        29.97S

$$

INZ060-061-067>069-081>083-085>088-200000-
SOUTHWEST INDIANA

CITY           SKY/WX    TMP DP  RH WIND       PRES   REMARKS
EVANSVILLE     SUNNY     87  67  51 W7        29.93S
HUNTINGBURG +  SUNNY     85  69  58 S7        29.94S
WASHINGTON +   PTSUNNY   85  64  49 MISG      29.92S

$$

INZ062-063-066-070>080-084-089>092-200000-
SOUTH CENTRAL AND SOUTHEAST INDIANA

CITY           SKY/WX    TMP DP  RH WIND       PRES   REMARKS
BEDFORD +      CLOUDY    84  64  51 SW3       29.93S
BLOOMINGTON    CLOUDY    84  64  50 W6        29.93S
MADISON *+     SUNNY     79  63  57 S3        29.97S
NORTH VERNON + MOSUNNY   82  68  61 CALM      29.94S

$$





USA.gov is the U.S. government's official web portal to all federal, state and local government web resources and services.